Time,TemperatureF,DewpointF,PressureIn,WindDirection,WindDirectionDegrees,WindSpeedMPH,WindSpeedGustMPH,Humidity,HourlyPrecipIn,Conditions,Clouds,dailyrainin,SolarRadiationWatts/m^2,SoftwareType,DateUTC
2013-03-07 00:00:00,31.2,25.1,30.00,WSW,246,0.0,0.0,78,0.00,,,0.00,0,Wunderground v.1.15,2013-03-07 08:00:00,
2013-03-07 00:10:00,30.8,25.1,30.00,WSW,246,0.0,0.0,79,0.00,,,0.00,0,Wunderground v.1.15,2013-03-07 08:10:00,
2013-03-07 00:20:00,30.7,25.3,30.00,WSW,246,0.0,0.0,80,0.00,,,0.00,0,Wunderground v.1.15,2013-03-07 08:20:00,
2013-03-07 00:25:00,30.6,25.2,30.00,WSW,246,0.0,0.0,80,0.00,,,0.00,0,Wunderground v.1.15,2013-03-07 08:25:00,
2013-03-07 00:30:00,30.5,25.1,30.00,WSW,246,0.0,0.0,80,0.00,,,0.00,0,Wunderground v.1.15,2013-03-07 08:30:00,
2013-03-07 00:35:00,30.5,25.1,30.01,WSW,246,0.0,0.0,80,0.00,,,0.00,0,Wunderground v.1.15,2013-03-07 08:35:00,
2013-03-07 00:40:00,30.4,25.0,30.01,WSW,246,0.0,0.0,80,0.00,,,0.00,0,Wunderground v.1.15,2013-03-07 08:40:00,
2013-03-07 00:45:00,30.4,25.0,30.02,WSW,246,0.0,0.0,80,0.00,,,0.00,0,Wunderground v.1.15,2013-03-07 08:45:00,
2013-03-07 00:55:00,30.6,24.9,30.02,WSW,246,0.0,0.0,79,0.00,,,0.00,0,Wunderground v.1.15,2013-03-07 08:55:00,
2013-03-07 01:00:00,30.6,24.6,30.02,WSW,246,0.0,0.0,78,0.00,,,0.00,0,Wunderground v.1.15,2013-03-07 09:00:00,
2013-03-07 01:10:00,30.4,24.7,30.02,WSW,246,0.0,0.0,79,0.00,,,0.00,0,Wunderground v.1.15,2013-03-07 09:10:00,
2013-03-07 01:20:00,30.4,24.7,30.02,WSW,246,0.0,0.0,79,0.00,,,0.00,0,Wunderground v.1.15,2013-03-07 09:20:00,
2013-03-07 01:25:00,30.5,24.8,30.02,WSW,246,0.0,0.0,79,0.00,,,0.00,0,Wunderground v.1.15,2013-03-07 09:25:00,
2013-03-07 01:35:00,30.6,24.6,30.02,WSW,242,0.0,0.0,78,0.00,,,0.00,0,Wunderground v.1.15,2013-03-07 09:35:00,
2013-03-07 01:40:00,30.7,24.7,30.02,WSW,242,0.0,0.0,78,0.00,,,0.00,0,Wunderground v.1.15,2013-03-07 09:40:00,
2013-03-07 01:45:00,30.8,24.7,30.02,West,262,0.0,0.0,78,0.00,,,0.00,0,Wunderground v.1.15,2013-03-07 09:45:00,
2013-03-07 01:50:00,30.8,24.7,30.03,West,259,0.0,0.0,78,0.00,,,0.00,0,Wunderground v.1.15,2013-03-07 09:50:00,
2013-03-07 01:55:00,31.0,24.6,30.03,WSW,242,0.0,0.0,77,0.00,,,0.00,0,Wunderground v.1.15,2013-03-07 09:55:00,
2013-03-07 02:00:00,31.1,24.7,30.03,West,259,0.0,0.0,77,0.00,,,0.00,0,Wunderground v.1.15,2013-03-07 10:00:00,
2013-03-07 02:10:00,31.1,24.7,30.03,SW,227,1.0,1.0,77,0.00,,,0.00,0,Wunderground v.1.15,2013-03-07 10:10:00,
2013-03-07 02:20:00,31.2,24.5,30.03,WSW,258,2.0,2.0,76,0.00,,,0.00,0,Wunderground v.1.15,2013-03-07 10:20:00,
2013-03-07 02:25:00,31.3,24.6,30.03,West,262,2.0,2.0,76,0.00,,,0.00,0,Wunderground v.1.15,2013-03-07 10:25:00,
2013-03-07 02:35:00,31.3,24.3,30.03,West,259,1.0,2.0,75,0.00,,,0.00,0,Wunderground v.1.15,2013-03-07 10:35:00,
2013-03-07 02:40:00,30.8,24.1,30.03,West,259,0.0,0.0,76,0.00,,,0.00,0,Wunderground v.1.15,2013-03-07 10:40:00,
2013-03-07 02:45:00,30.4,24.1,30.03,West,259,0.0,0.0,77,0.00,,,0.00,0,Wunderground v.1.15,2013-03-07 10:45:00,
2013-03-07 02:50:00,30.6,23.9,30.03,West,259,0.0,0.0,76,0.00,,,0.00,0,Wunderground v.1.15,2013-03-07 10:50:00,
2013-03-07 02:55:00,30.6,23.9,30.03,West,259,0.0,0.0,76,0.00,,,0.00,0,Wunderground v.1.15,2013-03-07 10:55:00,
2013-03-07 03:00:00,30.7,24.0,30.03,West,259,0.0,0.0,76,0.00,,,0.00,0,Wunderground v.1.15,2013-03-07 11:00:00,
2013-03-07 03:10:00,30.3,23.6,30.03,West,259,0.0,0.0,76,0.00,,,0.00,0,Wunderground v.1.15,2013-03-07 11:10:00,
2013-03-07 03:15:00,30.0,23.7,30.03,West,259,0.0,0.0,77,0.00,,,0.00,0,Wunderground v.1.15,2013-03-07 11:15:00,
2013-03-07 03:20:00,29.8,23.5,30.03,West,259,0.0,0.0,77,0.00,,,0.00,0,Wunderground v.1.15,2013-03-07 11:20:00,
2013-03-07 03:25:00,29.6,23.3,30.03,West,259,0.0,0.0,77,0.00,,,0.00,0,Wunderground v.1.15,2013-03-07 11:25:00,
2013-03-07 03:30:00,29.5,22.9,30.03,West,259,0.0,0.0,76,0.00,,,0.00,0,Wunderground v.1.15,2013-03-07 11:30:00,
2013-03-07 03:40:00,29.2,22.3,30.03,West,259,0.0,0.0,75,0.00,,,0.00,0,Wunderground v.1.15,2013-03-07 11:40:00,
2013-03-07 03:45:00,28.9,22.0,30.03,West,259,0.0,0.0,75,0.00,,,0.00,0,Wunderground v.1.15,2013-03-07 11:45:00,
2013-03-07 03:50:00,28.7,22.1,30.03,West,259,0.0,0.0,76,0.00,,,0.00,0,Wunderground v.1.15,2013-03-07 11:50:00,
2013-03-07 03:55:00,28.5,21.9,30.04,West,259,0.0,0.0,76,0.00,,,0.00,0,Wunderground v.1.15,2013-03-07 11:55:00,
2013-03-07 04:00:00,28.3,21.7,30.03,West,259,0.0,0.0,76,0.00,,,0.00,0,Wunderground v.1.15,2013-03-07 12:00:00,
2013-03-07 04:10:00,28.2,21.9,30.03,West,259,0.0,0.0,77,0.00,,,0.00,0,Wunderground v.1.15,2013-03-07 12:10:00,
2013-03-07 04:15:00,28.0,21.7,30.04,West,259,0.0,0.0,77,0.00,,,0.00,0,Wunderground v.1.15,2013-03-07 12:15:00,
2013-03-07 04:20:00,27.8,21.5,30.04,West,259,0.0,0.0,77,0.00,,,0.00,0,Wunderground v.1.15,2013-03-07 12:20:00,
2013-03-07 04:25:00,27.6,21.6,30.04,West,259,0.0,0.0,78,0.00,,,0.00,0,Wunderground v.1.15,2013-03-07 12:25:00,
2013-03-07 04:30:00,27.4,21.4,30.04,West,259,0.0,0.0,78,0.00,,,0.00,0,Wunderground v.1.15,2013-03-07 12:30:00,
2013-03-07 04:35:00,27.2,21.5,30.05,West,259,0.0,0.0,79,0.00,,,0.00,0,Wunderground v.1.15,2013-03-07 12:35:00,
2013-03-07 04:45:00,27.0,21.4,30.04,West,259,0.0,0.0,79,0.00,,,0.00,0,Wunderground v.1.15,2013-03-07 12:45:00,
2013-03-07 04:50:00,27.2,21.5,30.04,West,260,0.0,0.0,79,0.00,,,0.00,0,Wunderground v.1.15,2013-03-07 12:50:00,
2013-03-07 04:55:00,27.3,21.6,30.05,West,260,0.0,0.0,79,0.00,,,0.00,0,Wunderground v.1.15,2013-03-07 12:55:00,
2013-03-07 05:00:00,27.3,21.6,30.05,West,260,0.0,0.0,79,0.00,,,0.00,0,Wunderground v.1.15,2013-03-07 13:00:00,
2013-03-07 05:10:00,27.5,21.8,30.05,West,260,0.0,0.0,79,0.00,,,0.00,0,Wunderground v.1.15,2013-03-07 13:10:00,
2013-03-07 05:15:00,27.5,21.5,30.05,West,260,0.0,0.0,78,0.00,,,0.00,0,Wunderground v.1.15,2013-03-07 13:15:00,
2013-03-07 05:20:00,27.1,21.2,30.05,West,260,0.0,0.0,78,0.00,,,0.00,0,Wunderground v.1.15,2013-03-07 13:20:00,
2013-03-07 05:25:00,26.7,20.8,30.05,West,260,0.0,0.0,78,0.00,,,0.00,0,Wunderground v.1.15,2013-03-07 13:25:00,
2013-03-07 05:30:00,26.2,20.9,30.06,West,260,0.0,0.0,80,0.00,,,0.00,0,Wunderground v.1.15,2013-03-07 13:30:00,
2013-03-07 05:35:00,25.9,20.6,30.06,West,260,0.0,0.0,80,0.00,,,0.00,0,Wunderground v.1.15,2013-03-07 13:35:00,
2013-03-07 05:40:00,25.7,20.7,30.06,West,260,0.0,0.0,81,0.00,,,0.00,0,Wunderground v.1.15,2013-03-07 13:40:00,
2013-03-07 05:50:00,25.4,20.7,30.06,West,260,0.0,0.0,82,0.00,,,0.00,0,Wunderground v.1.15,2013-03-07 13:50:00,
2013-03-07 05:55:00,25.3,20.6,30.06,West,260,0.0,0.0,82,0.00,,,0.00,0,Wunderground v.1.15,2013-03-07 13:55:00,
2013-03-07 06:05:00,25.2,20.5,30.07,West,260,0.0,0.0,82,0.00,,,0.00,0,Wunderground v.1.15,2013-03-07 14:05:00,
2013-03-07 06:10:00,25.1,20.7,30.07,West,260,0.0,0.0,83,0.00,,,0.00,0,Wunderground v.1.15,2013-03-07 14:10:00,
2013-03-07 06:15:00,25.1,20.4,30.07,West,260,0.0,0.0,82,0.00,,,0.00,0,Wunderground v.1.15,2013-03-07 14:15:00,
2013-03-07 06:20:00,24.9,20.2,30.07,West,260,0.0,0.0,82,0.00,,,0.00,0,Wunderground v.1.15,2013-03-07 14:20:00,
2013-03-07 06:25:00,24.7,20.0,30.07,West,260,0.0,0.0,82,0.00,,,0.00,0,Wunderground v.1.15,2013-03-07 14:25:00,
2013-03-07 06:30:00,24.4,20.0,30.08,West,260,0.0,0.0,83,0.00,,,0.00,0,Wunderground v.1.15,2013-03-07 14:30:00,
2013-03-07 06:35:00,24.1,19.7,30.08,West,260,0.0,0.0,83,0.00,,,0.00,5,Wunderground v.1.15,2013-03-07 14:35:00,
2013-03-07 06:40:00,23.9,19.8,30.08,West,260,0.0,0.0,84,0.00,,,0.00,9,Wunderground v.1.15,2013-03-07 14:40:00,
2013-03-07 06:45:00,23.8,19.7,30.08,West,260,0.0,0.0,84,0.00,,,0.00,12,Wunderground v.1.15,2013-03-07 14:45:00,
2013-03-07 06:50:00,23.6,19.8,30.09,West,260,0.0,0.0,85,0.00,,,0.00,16,Wunderground v.1.15,2013-03-07 14:50:00,
2013-03-07 06:55:00,23.6,20.0,30.09,West,260,0.0,0.0,86,0.00,,,0.00,26,Wunderground v.1.15,2013-03-07 14:55:00,
2013-03-07 07:00:00,23.6,20.0,30.08,West,260,0.0,0.0,86,0.00,,,0.00,39,Wunderground v.1.15,2013-03-07 15:00:00,
2013-03-07 07:10:00,23.8,20.2,30.08,West,260,0.0,0.0,86,0.00,,,0.00,56,Wunderground v.1.15,2013-03-07 15:10:00,
2013-03-07 07:15:00,24.0,20.4,30.08,West,260,0.0,0.0,86,0.00,,,0.00,74,Wunderground v.1.15,2013-03-07 15:15:00,
2013-03-07 07:20:00,24.3,21.0,30.08,West,260,0.0,0.0,87,0.00,,,0.00,88,Wunderground v.1.15,2013-03-07 15:20:00,
2013-03-07 07:25:00,24.7,21.4,30.09,West,260,0.0,0.0,87,0.00,,,0.00,111,Wunderground v.1.15,2013-03-07 15:25:00,
2013-03-07 07:30:00,25.1,21.8,30.09,West,260,0.0,0.0,87,0.00,,,0.00,128,Wunderground v.1.15,2013-03-07 15:30:00,
2013-03-07 07:35:00,25.7,22.4,30.09,West,267,0.0,0.0,87,0.00,,,0.00,149,Wunderground v.1.15,2013-03-07 15:35:00,
2013-03-07 07:40:00,26.2,22.6,30.09,West,278,0.0,0.0,86,0.00,,,0.00,172,Wunderground v.1.15,2013-03-07 15:40:00,
2013-03-07 07:45:00,26.8,23.2,30.09,West,281,0.0,0.0,86,0.00,,,0.00,190,Wunderground v.1.15,2013-03-07 15:45:00,
2013-03-07 07:50:00,27.4,23.5,30.09,WNW,288,0.0,0.0,85,0.00,,,0.00,211,Wunderground v.1.15,2013-03-07 15:50:00,
2013-03-07 08:00:00,28.3,23.8,30.09,WNW,293,1.0,1.0,83,0.00,,,0.00,255,Wunderground v.1.15,2013-03-07 16:00:00,
2013-03-07 08:09:00,29.0,24.2,30.09,WNW,293,0.0,0.0,82,0.00,,,0.00,285,Wunderground v.1.15,2013-03-07 16:09:00,
2013-03-07 08:15:00,29.4,24.3,30.09,NW,306,0.0,3.0,81,0.00,,,0.00,283,Wunderground v.1.15,2013-03-07 16:15:00,
2013-03-07 08:20:00,29.7,24.3,30.09,NW,310,1.0,1.0,80,0.00,,,0.00,309,Wunderground v.1.15,2013-03-07 16:20:00,
2013-03-07 08:25:00,29.8,24.4,30.09,NW,310,1.0,1.0,80,0.00,,,0.00,329,Wunderground v.1.15,2013-03-07 16:25:00,
2013-03-07 08:30:00,30.1,24.7,30.09,NW,310,0.0,0.0,80,0.00,,,0.00,355,Wunderground v.1.15,2013-03-07 16:30:00,
2013-03-07 08:35:00,30.4,25.0,30.09,NW,310,0.0,0.0,80,0.00,,,0.00,376,Wunderground v.1.15,2013-03-07 16:35:00,
2013-03-07 08:44:00,31.3,25.5,30.09,NW,310,1.0,2.0,79,0.00,,,0.00,403,Wunderground v.1.15,2013-03-07 16:44:00,
2013-03-07 08:50:00,31.8,26.0,30.09,NW,310,0.0,1.0,79,0.00,,,0.00,418,Wunderground v.1.15,2013-03-07 16:50:00,
2013-03-07 08:55:00,32.3,26.5,30.09,NW,310,0.0,2.0,79,0.00,,,0.00,434,Wunderground v.1.15,2013-03-07 16:55:00,
2013-03-07 09:00:00,33.0,26.9,30.09,NW,310,1.0,1.0,78,0.00,,,0.00,450,Wunderground v.1.15,2013-03-07 17:00:00,
2013-03-07 09:10:00,34.5,27.7,30.09,West,281,1.0,1.0,76,0.00,,,0.00,476,Wunderground v.1.15,2013-03-07 17:10:00,
2013-03-07 09:15:00,35.5,28.4,30.09,West,263,1.0,1.0,75,0.00,,,0.01,492,Wunderground v.1.15,2013-03-07 17:15:00,
2013-03-07 09:19:00,36.7,28.5,30.09,WSW,255,1.0,1.0,72,0.00,,,0.01,506,Wunderground v.1.15,2013-03-07 17:19:00,
2013-03-07 09:25:00,37.9,27.9,30.09,WNW,286,0.0,1.0,67,0.00,,,0.01,519,Wunderground v.1.15,2013-03-07 17:25:00,
2013-03-07 09:30:00,38.7,28.3,30.09,West,264,0.0,0.0,66,0.00,,,0.01,533,Wunderground v.1.15,2013-03-07 17:30:00,
2013-03-07 09:35:00,39.4,28.6,30.09,WNW,288,1.0,1.0,65,0.00,,,0.01,545,Wunderground v.1.15,2013-03-07 17:35:00,
2013-03-07 09:45:00,40.1,28.1,30.09,West,275,1.0,3.0,62,0.00,,,0.01,570,Wunderground v.1.15,2013-03-07 17:45:00,
2013-03-07 09:50:00,40.4,28.8,30.09,WSW,252,1.0,2.0,63,0.00,,,0.01,582,Wunderground v.1.15,2013-03-07 17:50:00,
2013-03-07 09:55:00,40.7,28.3,30.09,West,263,1.0,2.0,61,0.00,,,0.01,594,Wunderground v.1.15,2013-03-07 17:55:00,
2013-03-07 10:00:00,41.0,28.2,30.09,West,269,0.0,0.0,60,0.00,,,0.01,606,Wunderground v.1.15,2013-03-07 18:00:00,
2013-03-07 10:10:00,41.8,28.5,30.09,West,267,0.0,1.0,59,0.00,,,0.01,624,Wunderground v.1.15,2013-03-07 18:10:00,
2013-03-07 10:15:00,42.1,28.8,30.08,West,268,0.0,1.0,59,0.00,,,0.01,635,Wunderground v.1.15,2013-03-07 18:15:00,
2013-03-07 10:20:00,42.4,28.7,30.08,SW,225,1.0,5.0,58,0.00,,,0.01,645,Wunderground v.1.15,2013-03-07 18:20:00,
2013-03-07 10:25:00,42.6,28.8,30.08,WSW,257,1.0,5.0,58,0.00,,,0.01,656,Wunderground v.1.15,2013-03-07 18:25:00,
2013-03-07 10:30:00,42.9,28.3,30.08,WSW,258,1.0,1.0,56,0.00,,,0.01,663,Wunderground v.1.15,2013-03-07 18:30:00,
2013-03-07 10:40:00,43.6,28.5,30.08,WNW,293,0.0,4.0,55,0.00,,,0.01,682,Wunderground v.1.15,2013-03-07 18:40:00,
2013-03-07 10:50:00,44.2,28.6,30.08,West,279,1.0,1.0,54,0.00,,,0.01,698,Wunderground v.1.15,2013-03-07 18:50:00,
2013-03-07 10:55:00,44.7,28.1,30.08,SSW,209,0.0,4.0,52,0.00,,,0.01,703,Wunderground v.1.15,2013-03-07 18:55:00,
2013-03-07 11:00:00,44.7,26.7,30.08,SW,227,1.0,1.0,49,0.00,,,0.01,714,Wunderground v.1.15,2013-03-07 19:00:00,
2013-03-07 11:10:00,44.2,28.1,30.08,WSW,246,1.0,1.0,53,0.00,,,0.01,724,Wunderground v.1.15,2013-03-07 19:10:00,
2013-03-07 11:20:00,45.2,27.2,30.07,West,263,1.0,1.0,49,0.00,,,0.01,735,Wunderground v.1.15,2013-03-07 19:20:00,
2013-03-07 11:30:00,45.2,27.2,30.07,SW,227,1.0,3.0,49,0.00,,,0.01,756,Wunderground v.1.15,2013-03-07 19:30:00,
2013-03-07 11:35:00,45.3,26.7,30.07,SW,218,2.0,3.0,48,0.00,,,0.02,752,Wunderground v.1.15,2013-03-07 19:35:00,
2013-03-07 11:40:00,45.2,26.7,30.07,SSW,209,1.0,3.0,48,0.00,,,0.02,759,Wunderground v.1.15,2013-03-07 19:40:00,
2013-03-07 11:45:00,45.4,27.8,30.07,SW,233,0.0,3.0,50,0.00,,,0.02,802,Wunderground v.1.15,2013-03-07 19:45:00,
2013-03-07 11:55:00,45.4,27.8,30.07,SSW,209,1.0,1.0,50,0.00,,,0.02,780,Wunderground v.1.15,2013-03-07 19:55:00,
2013-03-07 12:00:00,45.4,26.3,30.07,WNW,292,1.0,1.0,47,0.00,,,0.02,860,Wunderground v.1.15,2013-03-07 20:00:00,
2013-03-07 12:10:00,46.1,27.0,30.06,WSW,258,2.0,2.0,47,0.00,,,0.02,784,Wunderground v.1.15,2013-03-07 20:10:00,
2013-03-07 12:15:00,46.1,25.9,30.06,South,171,3.0,4.0,45,0.00,,,0.02,394,Wunderground v.1.15,2013-03-07 20:15:00,
2013-03-07 12:20:00,45.1,26.1,30.06,SW,229,3.0,3.0,47,0.00,,,0.02,645,Wunderground v.1.15,2013-03-07 20:20:00,
2013-03-07 12:30:00,45.0,25.4,30.05,SSE,167,2.0,2.0,46,0.00,,,0.02,875,Wunderground v.1.15,2013-03-07 20:30:00,
2013-03-07 12:35:00,44.6,26.1,30.05,SSE,161,2.0,2.0,48,0.00,,,0.02,847,Wunderground v.1.15,2013-03-07 20:35:00,
2013-03-07 12:40:00,45.5,26.4,30.04,SSE,165,1.0,1.0,47,0.00,,,0.02,817,Wunderground v.1.15,2013-03-07 20:40:00,
2013-03-07 12:45:00,45.7,26.1,30.04,SSE,157,1.0,1.0,46,0.00,,,0.02,824,Wunderground v.1.15,2013-03-07 20:45:00,
2013-03-07 12:50:00,46.1,27.5,30.04,NW,304,1.0,3.0,48,0.00,,,0.02,851,Wunderground v.1.15,2013-03-07 20:50:00,
2013-03-07 12:55:00,47.0,27.3,30.04,NW,310,1.0,3.0,46,0.00,,,0.02,837,Wunderground v.1.15,2013-03-07 20:55:00,
2013-03-07 13:00:00,47.7,27.4,30.03,SW,227,2.0,2.0,45,0.00,,,0.02,831,Wunderground v.1.15,2013-03-07 21:00:00,
2013-03-07 13:10:00,48.2,27.3,30.03,SW,236,1.0,4.0,44,0.00,,,0.02,837,Wunderground v.1.15,2013-03-07 21:10:00,
2013-03-07 13:15:00,48.5,25.8,30.03,West,274,1.0,4.0,41,0.00,,,0.02,846,Wunderground v.1.15,2013-03-07 21:15:00,
2013-03-07 13:20:00,47.8,25.8,30.03,East,92,1.0,1.0,42,0.00,,,0.02,835,Wunderground v.1.15,2013-03-07 21:20:00,
2013-03-07 13:25:00,48.1,26.6,30.02,East,92,0.0,1.0,43,0.00,,,0.02,809,Wunderground v.1.15,2013-03-07 21:25:00,
2013-03-07 13:30:00,48.1,25.5,30.02,South,169,0.0,0.0,41,0.00,,,0.02,779,Wunderground v.1.15,2013-03-07 21:30:00,
2013-03-07 13:35:00,47.7,25.7,30.02,SW,218,2.0,5.0,42,0.00,,,0.02,786,Wunderground v.1.15,2013-03-07 21:35:00,
2013-03-07 13:40:00,47.2,25.8,30.02,SW,221,2.0,5.0,43,0.00,,,0.02,823,Wunderground v.1.15,2013-03-07 21:40:00,
2013-03-07 13:45:00,46.9,26.1,30.02,SW,219,1.0,5.0,44,0.00,,,0.02,179,Wunderground v.1.15,2013-03-07 21:45:00,
2013-03-07 13:55:00,47.6,26.2,30.01,SW,220,0.0,0.0,43,0.00,,,0.02,218,Wunderground v.1.15,2013-03-07 21:55:00,
2013-03-07 14:00:00,47.8,26.4,30.01,South,169,0.0,0.0,43,0.00,,,0.02,279,Wunderground v.1.15,2013-03-07 22:00:00,
2013-03-07 14:10:00,47.4,24.3,30.01,SSW,211,1.0,1.0,40,0.00,,,0.02,174,Wunderground v.1.15,2013-03-07 22:10:00,
2013-03-07 14:14:00,47.4,26.0,30.01,WSW,239,1.0,1.0,43,0.00,,,0.02,204,Wunderground v.1.15,2013-03-07 22:14:00,
2013-03-07 14:20:00,47.6,26.7,30.01,WSW,239,1.0,1.0,44,0.00,,,0.02,220,Wunderground v.1.15,2013-03-07 22:20:00,
2013-03-07 14:25:00,48.0,26.0,30.01,WSW,246,0.0,1.0,42,0.00,,,0.02,216,Wunderground v.1.15,2013-03-07 22:25:00,
2013-03-07 14:30:00,48.0,25.4,30.01,WSW,246,0.0,0.0,41,0.00,,,0.02,232,Wunderground v.1.15,2013-03-07 22:30:00,
2013-03-07 14:35:00,48.2,25.0,30.01,WSW,246,0.0,0.0,40,0.00,,,0.02,250,Wunderground v.1.15,2013-03-07 22:35:00,
2013-03-07 14:45:00,47.7,26.8,30.01,WSW,244,3.0,3.0,44,0.00,,,0.02,227,Wunderground v.1.15,2013-03-07 22:45:00,
2013-03-07 14:50:00,47.3,27.0,30.02,SW,221,4.0,4.0,45,0.00,,,0.02,257,Wunderground v.1.15,2013-03-07 22:50:00,
2013-03-07 14:55:00,46.6,26.4,30.02,SW,230,5.0,15.0,45,0.00,,,0.02,323,Wunderground v.1.15,2013-03-07 22:55:00,
2013-03-07 15:00:00,45.8,26.2,30.02,SW,231,5.0,5.0,46,0.00,,,0.02,345,Wunderground v.1.15,2013-03-07 23:00:00,
2013-03-07 15:10:00,46.3,26.6,30.02,WSW,253,0.0,0.0,46,0.00,,,0.02,756,Wunderground v.1.15,2013-03-07 23:10:00,
2013-03-07 15:15:00,47.3,28.1,30.02,West,269,1.0,4.0,47,0.00,,,0.02,410,Wunderground v.1.15,2013-03-07 23:15:00,
2013-03-07 15:20:00,47.8,27.5,30.02,SW,221,2.0,5.0,45,0.00,,,0.02,596,Wunderground v.1.15,2013-03-07 23:20:00,
2013-03-07 15:25:00,46.9,27.2,30.02,SW,229,4.0,14.0,46,0.00,,,0.02,285,Wunderground v.1.15,2013-03-07 23:25:00,
2013-03-07 15:30:00,45.8,27.7,30.01,WSW,255,5.0,5.0,49,0.00,,,0.02,446,Wunderground v.1.15,2013-03-07 23:30:00,
2013-03-07 15:35:00,45.9,28.3,30.01,South,178,3.0,5.0,50,0.00,,,0.02,643,Wunderground v.1.15,2013-03-07 23:35:00,
2013-03-07 15:45:00,45.3,26.7,30.00,South,175,1.0,1.0,48,0.00,,,0.02,406,Wunderground v.1.15,2013-03-07 23:45:00,
2013-03-07 15:50:00,45.5,26.4,30.00,SSW,193,1.0,1.0,47,0.00,,,0.02,236,Wunderground v.1.15,2013-03-07 23:50:00,
2013-03-07 15:55:00,45.9,25.7,30.00,SSW,202,1.0,1.0,45,0.00,,,0.02,214,Wunderground v.1.15,2013-03-07 23:55:00,
2013-03-07 16:00:00,46.4,25.1,30.00,SSW,199,1.0,1.0,43,0.00,,,0.02,151,Wunderground v.1.15,2013-03-08 00:00:00,
2013-03-07 16:10:00,46.5,25.7,30.00,SW,225,1.0,3.0,44,0.00,,,0.02,130,Wunderground v.1.15,2013-03-08 00:10:00,
2013-03-07 16:15:00,46.5,25.2,30.00,SW,220,1.0,3.0,43,0.00,,,0.02,211,Wunderground v.1.15,2013-03-08 00:15:00,
2013-03-07 16:20:00,46.6,25.3,30.00,SSW,200,1.0,1.0,43,0.00,,,0.02,309,Wunderground v.1.15,2013-03-08 00:20:00,
2013-03-07 16:25:00,46.5,25.2,30.00,SSW,193,1.0,1.0,43,0.00,,,0.02,315,Wunderground v.1.15,2013-03-08 00:25:00,
2013-03-07 16:30:00,46.3,25.0,29.99,SSW,192,0.0,0.0,43,0.00,,,0.02,308,Wunderground v.1.15,2013-03-08 00:30:00,
2013-03-07 16:35:00,46.4,25.1,29.99,South,188,0.0,1.0,43,0.00,,,0.02,287,Wunderground v.1.15,2013-03-08 00:35:00,
2013-03-07 16:40:00,46.4,25.6,30.00,SSW,192,0.0,1.0,44,0.00,,,0.02,262,Wunderground v.1.15,2013-03-08 00:40:00,
2013-03-07 16:50:00,45.4,28.3,30.00,South,180,5.0,5.0,51,0.00,,,0.02,229,Wunderground v.1.15,2013-03-08 00:50:00,
2013-03-07 16:55:00,44.6,29.0,30.00,SSW,196,5.0,10.0,54,0.00,,,0.02,181,Wunderground v.1.15,2013-03-08 00:55:00,
2013-03-07 17:00:00,43.8,29.5,30.00,SSW,193,4.0,4.0,57,0.00,,,0.02,151,Wunderground v.1.15,2013-03-08 01:00:00,
2013-03-07 17:10:00,43.1,28.9,30.00,South,178,2.0,2.0,57,0.00,,,0.02,116,Wunderground v.1.15,2013-03-08 01:10:00,
2013-03-07 17:20:00,43.1,28.5,30.00,South,173,0.0,1.0,56,0.00,,,0.02,39,Wunderground v.1.15,2013-03-08 01:20:00,
2013-03-07 17:25:00,42.9,28.7,30.00,SSW,203,1.0,4.0,57,0.00,,,0.02,26,Wunderground v.1.15,2013-03-08 01:25:00,
2013-03-07 17:30:00,42.5,28.8,30.00,SSW,205,2.0,10.0,58,0.00,,,0.02,19,Wunderground v.1.15,2013-03-08 01:30:00,
2013-03-07 17:35:00,42.2,29.3,30.00,SSW,197,4.0,10.0,60,0.00,,,0.02,16,Wunderground v.1.15,2013-03-08 01:35:00,
2013-03-07 17:40:00,42.0,29.1,30.01,SSW,198,3.0,3.0,60,0.00,,,0.02,12,Wunderground v.1.15,2013-03-08 01:40:00,
2013-03-07 17:45:00,41.8,28.9,30.01,South,190,1.0,3.0,60,0.00,,,0.02,11,Wunderground v.1.15,2013-03-08 01:45:00,
2013-03-07 17:55:00,41.6,29.1,30.01,SSW,192,0.0,1.0,61,0.00,,,0.02,5,Wunderground v.1.15,2013-03-08 01:55:00,
2013-03-07 18:00:00,41.6,29.5,30.01,SSW,192,0.0,0.0,62,0.00,,,0.02,0,Wunderground v.1.15,2013-03-08 02:00:00,
2013-03-07 18:10:00,41.4,29.3,30.01,SSW,192,0.0,0.0,62,0.00,,,0.02,0,Wunderground v.1.15,2013-03-08 02:10:00,
2013-03-07 18:15:00,41.3,28.9,30.01,SSW,192,0.0,0.0,61,0.00,,,0.02,0,Wunderground v.1.15,2013-03-08 02:15:00,
2013-03-07 18:20:00,41.1,28.7,30.01,SSW,192,0.0,0.0,61,0.00,,,0.02,0,Wunderground v.1.15,2013-03-08 02:20:00,
2013-03-07 18:25:00,41.0,29.0,30.01,South,184,0.0,1.0,62,0.00,,,0.02,0,Wunderground v.1.15,2013-03-08 02:25:00,
2013-03-07 18:34:00,40.9,28.9,30.02,South,181,0.0,0.0,62,0.00,,,0.02,0,Wunderground v.1.15,2013-03-08 02:34:00,
2013-03-07 18:39:00,40.7,28.7,30.01,South,180,0.0,0.0,62,0.00,,,0.02,0,Wunderground v.1.15,2013-03-08 02:39:00,
2013-03-07 18:45:00,40.7,28.7,30.01,South,180,0.0,0.0,62,0.00,,,0.02,0,Wunderground v.1.15,2013-03-08 02:45:00,
2013-03-07 18:49:00,41.0,28.2,30.02,South,177,0.0,0.0,60,0.00,,,0.02,0,Wunderground v.1.15,2013-03-08 02:49:00,
2013-03-07 18:55:00,41.2,28.4,30.02,South,177,0.0,0.0,60,0.00,,,0.02,0,Wunderground v.1.15,2013-03-08 02:55:00,
2013-03-07 19:00:00,41.0,28.6,30.02,South,177,0.0,0.0,61,0.00,,,0.02,0,Wunderground v.1.15,2013-03-08 03:00:00,
2013-03-07 19:10:00,39.9,29.1,30.02,ESE,119,0.0,1.0,65,0.00,,,0.02,0,Wunderground v.1.15,2013-03-08 03:10:00,
2013-03-07 19:15:00,40.1,29.3,30.02,SE,142,1.0,1.0,65,0.00,,,0.02,0,Wunderground v.1.15,2013-03-08 03:15:00,
2013-03-07 19:20:00,40.0,29.6,30.03,SE,138,1.0,2.0,66,0.00,,,0.02,0,Wunderground v.1.15,2013-03-08 03:20:00,
2013-03-07 19:30:00,39.8,29.7,30.03,SSE,158,1.0,1.0,67,0.00,,,0.02,0,Wunderground v.1.15,2013-03-08 03:30:00,
2013-03-07 19:35:00,39.7,29.6,30.03,SSE,148,1.0,1.0,67,0.00,,,0.02,0,Wunderground v.1.15,2013-03-08 03:35:00,
2013-03-07 19:40:00,39.7,29.6,30.03,SE,137,1.0,1.0,67,0.00,,,0.02,0,Wunderground v.1.15,2013-03-08 03:40:00,
2013-03-07 19:45:00,39.6,29.5,30.03,SE,146,1.0,1.0,67,0.00,,,0.02,0,Wunderground v.1.15,2013-03-08 03:45:00,
2013-03-07 19:50:00,39.5,29.8,30.03,SSE,157,1.0,1.0,68,0.00,,,0.02,0,Wunderground v.1.15,2013-03-08 03:50:00,
2013-03-07 20:00:00,39.2,29.9,30.03,SE,132,1.0,2.0,69,0.00,,,0.02,0,Wunderground v.1.15,2013-03-08 04:00:00,
2013-03-07 20:10:00,39.1,29.8,30.03,SE,129,2.0,2.0,69,0.00,,,0.02,0,Wunderground v.1.15,2013-03-08 04:10:00,
2013-03-07 20:15:00,38.9,29.9,30.03,ESE,117,2.0,2.0,70,0.00,,,0.02,0,Wunderground v.1.15,2013-03-08 04:15:00,
2013-03-07 20:20:00,38.8,30.2,30.03,ESE,111,1.0,1.0,71,0.00,,,0.02,0,Wunderground v.1.15,2013-03-08 04:20:00,
2013-03-07 20:25:00,38.6,30.4,30.04,ESE,113,1.0,2.0,72,0.00,,,0.02,0,Wunderground v.1.15,2013-03-08 04:25:00,
2013-03-07 20:35:00,38.0,30.4,30.04,East,88,1.0,2.0,74,0.00,,,0.02,0,Wunderground v.1.15,2013-03-08 04:35:00,
2013-03-07 20:40:00,37.8,30.9,30.04,East,89,1.0,1.0,76,0.00,,,0.02,0,Wunderground v.1.15,2013-03-08 04:40:00,
2013-03-07 20:45:00,37.6,30.7,30.04,East,98,1.0,1.0,76,0.00,,,0.02,0,Wunderground v.1.15,2013-03-08 04:45:00,
2013-03-07 20:50:00,37.5,30.6,30.04,ESE,103,1.0,1.0,76,0.00,,,0.02,0,Wunderground v.1.15,2013-03-08 04:50:00,
2013-03-07 20:55:00,37.5,30.6,30.04,ESE,105,1.0,1.0,76,0.00,,,0.02,0,Wunderground v.1.15,2013-03-08 04:55:00,
2013-03-07 21:00:00,37.4,30.8,30.04,East,89,0.0,1.0,77,0.00,,,0.02,0,Wunderground v.1.15,2013-03-08 05:00:00,
2013-03-07 21:10:00,37.0,30.8,30.05,East,93,0.0,0.0,78,0.00,,,0.02,0,Wunderground v.1.15,2013-03-08 05:10:00,
2013-03-07 21:15:00,36.8,30.6,30.04,East,87,0.0,1.0,78,0.00,,,0.02,0,Wunderground v.1.15,2013-03-08 05:15:00,
2013-03-07 21:20:00,36.9,30.7,30.05,East,98,1.0,1.0,78,0.00,,,0.02,0,Wunderground v.1.15,2013-03-08 05:20:00,
2013-03-07 21:25:00,37.0,31.1,30.04,SE,146,1.0,2.0,79,0.00,,,0.02,0,Wunderground v.1.15,2013-03-08 05:25:00,
2013-03-07 21:30:00,37.1,30.9,30.04,East,83,2.0,2.0,78,0.00,,,0.02,0,Wunderground v.1.15,2013-03-08 05:30:00,
2013-03-07 21:35:00,37.0,30.8,30.05,ENE,78,1.0,2.0,78,0.00,,,0.02,0,Wunderground v.1.15,2013-03-08 05:35:00,
2013-03-07 21:40:00,36.8,30.6,30.05,ENE,76,0.0,0.0,78,0.00,,,0.02,0,Wunderground v.1.15,2013-03-08 05:40:00,
2013-03-07 21:45:00,36.6,30.7,30.05,ENE,75,0.0,0.0,79,0.00,,,0.02,0,Wunderground v.1.15,2013-03-08 05:45:00,
2013-03-07 21:50:00,36.4,30.5,30.05,ENE,75,0.0,0.0,79,0.00,,,0.02,0,Wunderground v.1.15,2013-03-08 05:50:00,
2013-03-07 21:55:00,36.2,30.3,30.05,South,186,0.0,0.0,79,0.00,,,0.02,0,Wunderground v.1.15,2013-03-08 05:55:00,
2013-03-07 22:00:00,36.0,30.7,30.05,South,184,0.0,0.0,81,0.00,,,0.02,0,Wunderground v.1.15,2013-03-08 06:00:00,
2013-03-07 22:10:00,35.4,30.5,30.04,South,184,0.0,0.0,82,0.00,,,0.02,0,Wunderground v.1.15,2013-03-08 06:10:00,
2013-03-07 22:15:00,35.0,30.1,30.04,South,184,0.0,0.0,82,0.00,,,0.02,0,Wunderground v.1.15,2013-03-08 06:15:00,
2013-03-07 22:20:00,34.9,30.3,30.05,South,184,0.0,0.0,83,0.00,,,0.02,0,Wunderground v.1.15,2013-03-08 06:20:00,
2013-03-07 22:25:00,34.8,30.2,30.05,South,184,0.0,0.0,83,0.00,,,0.02,0,Wunderground v.1.15,2013-03-08 06:25:00,
2013-03-07 22:30:00,34.8,29.9,30.04,South,184,0.0,0.0,82,0.00,,,0.02,0,Wunderground v.1.15,2013-03-08 06:30:00,
2013-03-07 22:35:00,34.4,29.5,30.04,South,184,0.0,0.0,82,0.00,,,0.02,0,Wunderground v.1.15,2013-03-08 06:35:00,
2013-03-07 22:45:00,34.6,30.0,30.04,SSE,165,0.0,0.0,83,0.00,,,0.02,0,Wunderground v.1.15,2013-03-08 06:45:00,
2013-03-07 22:50:00,34.6,30.0,30.04,SSE,164,0.0,0.0,83,0.00,,,0.02,0,Wunderground v.1.15,2013-03-08 06:50:00,
2013-03-07 22:55:00,34.4,29.8,30.04,SSE,164,0.0,0.0,83,0.00,,,0.02,0,Wunderground v.1.15,2013-03-08 06:55:00,
2013-03-07 23:00:00,34.3,29.7,30.04,SSE,164,0.0,0.0,83,0.00,,,0.02,0,Wunderground v.1.15,2013-03-08 07:00:00,
2013-03-07 23:10:00,34.3,29.4,30.04,SSE,164,0.0,0.0,82,0.00,,,0.02,0,Wunderground v.1.15,2013-03-08 07:10:00,
2013-03-07 23:15:00,34.3,29.4,30.04,SSE,164,0.0,0.0,82,0.00,,,0.02,0,Wunderground v.1.15,2013-03-08 07:15:00,
2013-03-07 23:20:00,34.2,29.3,30.04,SSE,164,0.0,0.0,82,0.00,,,0.02,0,Wunderground v.1.15,2013-03-08 07:20:00,
2013-03-07 23:25:00,34.1,29.2,30.04,SSE,164,0.0,0.0,82,0.00,,,0.02,0,Wunderground v.1.15,2013-03-08 07:25:00,
2013-03-07 23:30:00,34.0,29.1,30.03,SSE,164,0.0,0.0,82,0.00,,,0.02,0,Wunderground v.1.15,2013-03-08 07:30:00,
2013-03-07 23:35:00,33.9,28.7,30.03,SSE,164,0.0,0.0,81,0.00,,,0.02,0,Wunderground v.1.15,2013-03-08 07:35:00,
2013-03-07 23:40:00,33.7,28.5,30.03,SSE,164,0.0,0.0,81,0.00,,,0.02,0,Wunderground v.1.15,2013-03-08 07:40:00,
2013-03-07 23:50:00,32.8,28.2,30.04,SSE,165,0.0,0.0,83,0.00,,,0.02,0,Wunderground v.1.15,2013-03-08 07:50:00,
2013-03-07 23:55:00,32.5,27.9,30.04,SSE,165,0.0,0.0,83,0.00,,,0.02,0,Wunderground v.1.15,2013-03-08 07:55:00,